owner,sensor,date,latitude,longitude,air_pressure(mBar),qcFlag 
WAVCIS,ioos:station:WAVCIS:CSI03:1,2010-02-01T00:00:00Z,29.4412,-92.0613,1020.22,11111222 
WAVCIS,ioos:station:WAVCIS:CSI03:1,2010-02-01T01:00:00Z,29.4412,-92.0613,1020.92,11111222 
WAVCIS,ioos:station:WAVCIS:CSI03:1,2010-02-01T02:00:00Z,29.4412,-92.0613,1021.58,11111222 
WAVCIS,ioos:station:WAVCIS:CSI03:1,2010-02-01T03:00:00Z,29.4412,-92.0613,1020.84,11111222 
WAVCIS,ioos:station:WAVCIS:CSI03:1,2010-02-01T04:00:00Z,29.4412,-92.0613,1020.49,11111222 
WAVCIS,ioos:station:WAVCIS:CSI03:1,2010-02-01T05:00:00Z,29.4412,-92.0613,1020.74,11111222 
WAVCIS,ioos:station:WAVCIS:CSI03:1,2010-02-01T06:00:00Z,29.4412,-92.0613,1021.14,11111222 
WAVCIS,ioos:station:WAVCIS:CSI03:1,2010-02-01T07:00:00Z,29.4412,-92.0613,1020.86,11111222 
WAVCIS,ioos:station:WAVCIS:CSI03:1,2010-02-01T08:00:00Z,29.4412,-92.0613,1020.02,11111222 
WAVCIS,ioos:station:WAVCIS:CSI03:1,2010-02-01T09:00:00Z,29.4412,-92.0613,1020.12,11111222 
WAVCIS,ioos:station:WAVCIS:CSI03:1,2010-02-01T10:00:00Z,29.4412,-92.0613,1019.81,11111222 
WAVCIS,ioos:station:WAVCIS:CSI03:1,2010-02-01T11:00:00Z,29.4412,-92.0613,1019.42,11111222 
WAVCIS,ioos:station:WAVCIS:CSI03:1,2010-02-01T12:00:00Z,29.4412,-92.0613,1019.36,11111222 
WAVCIS,ioos:station:WAVCIS:CSI03:1,2010-02-01T13:00:00Z,29.4412,-92.0613,1020.01,11111222 
WAVCIS,ioos:station:WAVCIS:CSI03:1,2010-02-01T14:00:00Z,29.4412,-92.0613,1019.01,11111222 
WAVCIS,ioos:station:WAVCIS:CSI03:1,2010-02-01T15:00:00Z,29.4412,-92.0613,1018.9,11111222 
WAVCIS,ioos:station:WAVCIS:CSI03:1,2010-02-01T16:00:00Z,29.4412,-92.0613,1018.74,11111222 
WAVCIS,ioos:station:WAVCIS:CSI03:1,2010-02-01T17:00:00Z,29.4412,-92.0613,1018.72,11111222 
WAVCIS,ioos:station:WAVCIS:CSI03:1,2010-02-01T18:00:00Z,29.4412,-92.0613,1018.43,11111222 
WAVCIS,ioos:station:WAVCIS:CSI03:1,2010-02-01T19:00:00Z,29.4412,-92.0613,1017.79,11111222 
WAVCIS,ioos:station:WAVCIS:CSI03:1,2010-02-01T20:00:00Z,29.4412,-92.0613,1016.8,11111222 
WAVCIS,ioos:station:WAVCIS:CSI03:1,2010-02-01T21:00:00Z,29.4412,-92.0613,1016.13,11111222 
WAVCIS,ioos:station:WAVCIS:CSI03:1,2010-02-01T22:00:00Z,29.4412,-92.0613,1016.17,11111222 
WAVCIS,ioos:station:WAVCIS:CSI03:1,2010-02-01T23:00:00Z,29.4412,-92.0613,1016.48,11111222 
WAVCIS,ioos:station:WAVCIS:CSI03:1,2010-02-02T00:00:00Z,29.4412,-92.0613,1016.74,11111222 
WAVCIS,ioos:station:WAVCIS:CSI03:1,2010-02-02T01:00:00Z,29.4412,-92.0613,1016.73,11111222 
WAVCIS,ioos:station:WAVCIS:CSI03:1,2010-02-02T02:00:00Z,29.4412,-92.0613,1016.35,11111222 
WAVCIS,ioos:station:WAVCIS:CSI03:1,2010-02-02T03:00:00Z,29.4412,-92.0613,1016.85,11111222 
WAVCIS,ioos:station:WAVCIS:CSI03:1,2010-02-02T04:00:00Z,29.4412,-92.0613,1016.16,11111222 
WAVCIS,ioos:station:WAVCIS:CSI03:1,2010-02-02T05:00:00Z,29.4412,-92.0613,1015.59,11111222 
WAVCIS,ioos:station:WAVCIS:CSI03:1,2010-02-02T06:00:00Z,29.4412,-92.0613,1015.4,11111222 
WAVCIS,ioos:station:WAVCIS:CSI03:1,2010-02-02T07:00:00Z,29.4412,-92.0613,1015.95,11111222 
WAVCIS,ioos:station:WAVCIS:CSI03:1,2010-02-02T08:00:00Z,29.4412,-92.0613,1015.94,11111222 
WAVCIS,ioos:station:WAVCIS:CSI03:1,2010-02-02T09:00:00Z,29.4412,-92.0613,1016.47,11111222 
WAVCIS,ioos:station:WAVCIS:CSI03:1,2010-02-02T10:00:00Z,29.4412,-92.0613,1016.33,11111222 
WAVCIS,ioos:station:WAVCIS:CSI03:1,2010-02-02T11:00:00Z,29.4412,-92.0613,1015.83,11111222 
WAVCIS,ioos:station:WAVCIS:CSI03:1,2010-02-02T12:00:00Z,29.4412,-92.0613,1016.36,11111222 
WAVCIS,ioos:station:WAVCIS:CSI03:1,2010-02-02T13:00:00Z,29.4412,-92.0613,1016.71,11111222 
WAVCIS,ioos:station:WAVCIS:CSI03:1,2010-02-02T14:00:00Z,29.4412,-92.0613,1017.17,11111222 
WAVCIS,ioos:station:WAVCIS:CSI03:1,2010-02-02T15:00:00Z,29.4412,-92.0613,1017.69,11111222 
WAVCIS,ioos:station:WAVCIS:CSI03:1,2010-02-02T16:00:00Z,29.4412,-92.0613,1018.84,11111222 
WAVCIS,ioos:station:WAVCIS:CSI03:1,2010-02-02T17:00:00Z,29.4412,-92.0613,1018.66,11111222 
WAVCIS,ioos:station:WAVCIS:CSI03:1,2010-02-02T18:00:00Z,29.4412,-92.0613,1018.44,11111222 
WAVCIS,ioos:station:WAVCIS:CSI03:1,2010-02-02T19:00:00Z,29.4412,-92.0613,1017.07,11111222 
WAVCIS,ioos:station:WAVCIS:CSI03:1,2010-02-02T20:00:00Z,29.4412,-92.0613,1016.74,11111222 
WAVCIS,ioos:station:WAVCIS:CSI03:1,2010-02-02T21:00:00Z,29.4412,-92.0613,1016.49,11111222 
WAVCIS,ioos:station:WAVCIS:CSI03:1,2010-02-02T22:00:00Z,29.4412,-92.0613,1017.27,11111222 
WAVCIS,ioos:station:WAVCIS:CSI03:1,2010-02-02T23:00:00Z,29.4412,-92.0613,1017.41,11111222 
WAVCIS,ioos:station:WAVCIS:CSI03:1,2010-02-03T00:00:00Z,29.4412,-92.0613,1018.18,11111222 
WAVCIS,ioos:station:WAVCIS:CSI03:1,2010-02-03T01:00:00Z,29.4412,-92.0613,1018.6,11111222 
WAVCIS,ioos:station:WAVCIS:CSI03:1,2010-02-03T02:00:00Z,29.4412,-92.0613,1019.38,11111222 
WAVCIS,ioos:station:WAVCIS:CSI03:1,2010-02-03T03:00:00Z,29.4412,-92.0613,1019.56,11111222 
WAVCIS,ioos:station:WAVCIS:CSI03:1,2010-02-03T04:00:00Z,29.4412,-92.0613,1020.08,11111222 
WAVCIS,ioos:station:WAVCIS:CSI03:1,2010-02-03T05:00:00Z,29.4412,-92.0613,1019.36,11111222 
WAVCIS,ioos:station:WAVCIS:CSI03:1,2010-02-03T06:00:00Z,29.4412,-92.0613,1019.4,11111222 
WAVCIS,ioos:station:WAVCIS:CSI03:1,2010-02-03T07:00:00Z,29.4412,-92.0613,1018.67,11111222 
WAVCIS,ioos:station:WAVCIS:CSI03:1,2010-02-03T08:00:00Z,29.4412,-92.0613,1018.43,11111222 
WAVCIS,ioos:station:WAVCIS:CSI03:1,2010-02-03T09:00:00Z,29.4412,-92.0613,1017.92,11111222 
WAVCIS,ioos:station:WAVCIS:CSI03:1,2010-02-03T10:00:00Z,29.4412,-92.0613,1016.89,11111222 
WAVCIS,ioos:station:WAVCIS:CSI03:1,2010-02-03T11:00:00Z,29.4412,-92.0613,1017.71,11111222 
WAVCIS,ioos:station:WAVCIS:CSI03:1,2010-02-03T12:00:00Z,29.4412,-92.0613,1018.61,11111222 
WAVCIS,ioos:station:WAVCIS:CSI03:1,2010-02-03T13:00:00Z,29.4412,-92.0613,1019.37,11111222 
WAVCIS,ioos:station:WAVCIS:CSI03:1,2010-02-03T14:00:00Z,29.4412,-92.0613,1019.16,11111222 
WAVCIS,ioos:station:WAVCIS:CSI03:1,2010-02-03T15:00:00Z,29.4412,-92.0613,1019.75,11111222 
WAVCIS,ioos:station:WAVCIS:CSI03:1,2010-02-03T16:00:00Z,29.4412,-92.0613,1018.53,11111222 
WAVCIS,ioos:station:WAVCIS:CSI03:1,2010-02-03T17:00:00Z,29.4412,-92.0613,1018.75,11111222 
WAVCIS,ioos:station:WAVCIS:CSI03:1,2010-02-03T18:00:00Z,29.4412,-92.0613,1017.9,11111222 
WAVCIS,ioos:station:WAVCIS:CSI03:1,2010-02-03T19:00:00Z,29.4412,-92.0613,1016.77,11111222 
WAVCIS,ioos:station:WAVCIS:CSI03:1,2010-02-03T20:00:00Z,29.4412,-92.0613,1015.83,11111222 
WAVCIS,ioos:station:WAVCIS:CSI03:1,2010-02-03T21:00:00Z,29.4412,-92.0613,1015.59,11111222 
WAVCIS,ioos:station:WAVCIS:CSI03:1,2010-02-03T22:00:00Z,29.4412,-92.0613,1015.36,11111222 
WAVCIS,ioos:station:WAVCIS:CSI03:1,2010-02-03T23:00:00Z,29.4412,-92.0613,1015.99,11111222 
WAVCIS,ioos:station:WAVCIS:CSI03:1,2010-02-04T00:00:00Z,29.4412,-92.0613,1015.87,11111222 
WAVCIS,ioos:station:WAVCIS:CSI03:1,2010-02-04T01:00:00Z,29.4412,-92.0613,1016.03,11111222 
WAVCIS,ioos:station:WAVCIS:CSI03:1,2010-02-04T02:00:00Z,29.4412,-92.0613,1016.85,11111222 
WAVCIS,ioos:station:WAVCIS:CSI03:1,2010-02-04T03:00:00Z,29.4412,-92.0613,1015.85,11111222 
WAVCIS,ioos:station:WAVCIS:CSI03:1,2010-02-04T04:00:00Z,29.4412,-92.0613,1014.73,11111222 
WAVCIS,ioos:station:WAVCIS:CSI03:1,2010-02-04T05:00:00Z,29.4412,-92.0613,1014.41,11111222 
WAVCIS,ioos:station:WAVCIS:CSI03:1,2010-02-04T06:00:00Z,29.4412,-92.0613,1014.72,11111222 
WAVCIS,ioos:station:WAVCIS:CSI03:1,2010-02-04T07:00:00Z,29.4412,-92.0613,1013.79,11111222 
WAVCIS,ioos:station:WAVCIS:CSI03:1,2010-02-04T08:00:00Z,29.4412,-92.0613,1012.68,11111222 
WAVCIS,ioos:station:WAVCIS:CSI03:1,2010-02-04T09:00:00Z,29.4412,-92.0613,1011.79,11111222 
WAVCIS,ioos:station:WAVCIS:CSI03:1,2010-02-04T10:00:00Z,29.4412,-92.0613,1011.24,11111222 
WAVCIS,ioos:station:WAVCIS:CSI03:1,2010-02-04T11:00:00Z,29.4412,-92.0613,1011.45,11111222 
WAVCIS,ioos:station:WAVCIS:CSI03:1,2010-02-04T12:00:00Z,29.4412,-92.0613,1011.05,11111222 
WAVCIS,ioos:station:WAVCIS:CSI03:1,2010-02-04T13:00:00Z,29.4412,-92.0613,1011.11,11111222 
WAVCIS,ioos:station:WAVCIS:CSI03:1,2010-02-04T14:00:00Z,29.4412,-92.0613,1011.82,11111222 
WAVCIS,ioos:station:WAVCIS:CSI03:1,2010-02-04T15:00:00Z,29.4412,-92.0613,1010.79,11111222 
WAVCIS,ioos:station:WAVCIS:CSI03:1,2010-02-04T16:00:00Z,29.4412,-92.0613,1010.21,11111222 
WAVCIS,ioos:station:WAVCIS:CSI03:1,2010-02-04T17:00:00Z,29.4412,-92.0613,1008.76,11111222 
WAVCIS,ioos:station:WAVCIS:CSI03:1,2010-02-04T18:00:00Z,29.4412,-92.0613,1007.78,11111222 
WAVCIS,ioos:station:WAVCIS:CSI03:1,2010-02-04T19:00:00Z,29.4412,-92.0613,1004.635,11111222 
WAVCIS,ioos:station:WAVCIS:CSI03:1,2010-02-04T20:00:00Z,29.4412,-92.0613,1004.528,11111222 
WAVCIS,ioos:station:WAVCIS:CSI03:1,2010-02-04T21:00:00Z,29.4412,-92.0613,1004.99,11111222 
WAVCIS,ioos:station:WAVCIS:CSI03:1,2010-02-04T22:00:00Z,29.4412,-92.0613,1005.009,11111222 
WAVCIS,ioos:station:WAVCIS:CSI03:1,2010-02-04T23:00:00Z,29.4412,-92.0613,1005.539,11111222 
WAVCIS,ioos:station:WAVCIS:CSI03:1,2010-02-05T00:00:00Z,29.4412,-92.0613,1006.976,11111222 
WAVCIS,ioos:station:WAVCIS:CSI03:1,2010-02-05T01:00:00Z,29.4412,-92.0613,1006.483,11111222 
WAVCIS,ioos:station:WAVCIS:CSI03:1,2010-02-05T02:00:00Z,29.4412,-92.0613,1005.855,11111222 
WAVCIS,ioos:station:WAVCIS:CSI03:1,2010-02-05T03:00:00Z,29.4412,-92.0613,1006.329,11111222 
WAVCIS,ioos:station:WAVCIS:CSI03:1,2010-02-05T04:00:00Z,29.4412,-92.0613,1006.09,11111222 
WAVCIS,ioos:station:WAVCIS:CSI03:1,2010-02-05T05:00:00Z,29.4412,-92.0613,1007.01,11111222 
WAVCIS,ioos:station:WAVCIS:CSI03:1,2010-02-05T06:00:00Z,29.4412,-92.0613,1006.999,11111222 
WAVCIS,ioos:station:WAVCIS:CSI03:1,2010-02-05T07:00:00Z,29.4412,-92.0613,1006.86,11111222 
WAVCIS,ioos:station:WAVCIS:CSI03:1,2010-02-05T08:00:00Z,29.4412,-92.0613,1006.576,11111222 
WAVCIS,ioos:station:WAVCIS:CSI03:1,2010-02-05T09:00:00Z,29.4412,-92.0613,1006.565,11111222 
WAVCIS,ioos:station:WAVCIS:CSI03:1,2010-02-05T10:00:00Z,29.4412,-92.0613,1005.584,11111222 
WAVCIS,ioos:station:WAVCIS:CSI03:1,2010-02-05T11:00:00Z,29.4412,-92.0613,1006.367,11111222 
WAVCIS,ioos:station:WAVCIS:CSI03:1,2010-02-05T12:00:00Z,29.4412,-92.0613,1007.22,11111222 
WAVCIS,ioos:station:WAVCIS:CSI03:1,2010-02-05T13:00:00Z,29.4412,-92.0613,1007.6,11111222 
WAVCIS,ioos:station:WAVCIS:CSI03:1,2010-02-05T14:00:00Z,29.4412,-92.0613,1008.26,11111222 
WAVCIS,ioos:station:WAVCIS:CSI03:1,2010-02-05T15:00:00Z,29.4412,-92.0613,1009.04,11111222 
WAVCIS,ioos:station:WAVCIS:CSI03:1,2010-02-05T16:00:00Z,29.4412,-92.0613,1009.7,11111222 
WAVCIS,ioos:station:WAVCIS:CSI03:1,2010-02-05T17:00:00Z,29.4412,-92.0613,1010.14,11111222 
WAVCIS,ioos:station:WAVCIS:CSI03:1,2010-02-05T18:00:00Z,29.4412,-92.0613,1009.69,11111222 
WAVCIS,ioos:station:WAVCIS:CSI03:1,2010-02-05T19:00:00Z,29.4412,-92.0613,1009.08,11111222 
WAVCIS,ioos:station:WAVCIS:CSI03:1,2010-02-05T20:00:00Z,29.4412,-92.0613,1008.97,11111222 
WAVCIS,ioos:station:WAVCIS:CSI03:1,2010-02-05T21:00:00Z,29.4412,-92.0613,1008.64,11111222 
WAVCIS,ioos:station:WAVCIS:CSI03:1,2010-02-05T22:00:00Z,29.4412,-92.0613,1008.88,11111222 
WAVCIS,ioos:station:WAVCIS:CSI03:1,2010-02-05T23:00:00Z,29.4412,-92.0613,1008.98,11111222 
WAVCIS,ioos:station:WAVCIS:CSI03:1,2010-02-06T00:00:00Z,29.4412,-92.0613,1009.19,11111222 
WAVCIS,ioos:station:WAVCIS:CSI03:1,2010-02-06T01:00:00Z,29.4412,-92.0613,1009.97,11111222 
WAVCIS,ioos:station:WAVCIS:CSI03:1,2010-02-06T02:00:00Z,29.4412,-92.0613,1010.68,11111222 
WAVCIS,ioos:station:WAVCIS:CSI03:1,2010-02-06T03:00:00Z,29.4412,-92.0613,1011.45,11111222 
WAVCIS,ioos:station:WAVCIS:CSI03:1,2010-02-06T04:00:00Z,29.4412,-92.0613,1011.64,11111222 
WAVCIS,ioos:station:WAVCIS:CSI03:1,2010-02-06T05:00:00Z,29.4412,-92.0613,1012.05,11111222 
WAVCIS,ioos:station:WAVCIS:CSI03:1,2010-02-06T06:00:00Z,29.4412,-92.0613,1012.55,11111222 
WAVCIS,ioos:station:WAVCIS:CSI03:1,2010-02-06T07:00:00Z,29.4412,-92.0613,1012.55,11111222 
WAVCIS,ioos:station:WAVCIS:CSI03:1,2010-02-06T08:00:00Z,29.4412,-92.0613,1012.41,11111222 
WAVCIS,ioos:station:WAVCIS:CSI03:1,2010-02-06T09:00:00Z,29.4412,-92.0613,1012.42,11111222 
WAVCIS,ioos:station:WAVCIS:CSI03:1,2010-02-06T10:00:00Z,29.4412,-92.0613,1011.87,11111222 
WAVCIS,ioos:station:WAVCIS:CSI03:1,2010-02-06T11:00:00Z,29.4412,-92.0613,1012.02,11111222 
WAVCIS,ioos:station:WAVCIS:CSI03:1,2010-02-06T12:00:00Z,29.4412,-92.0613,1012.89,11111222 
WAVCIS,ioos:station:WAVCIS:CSI03:1,2010-02-06T13:00:00Z,29.4412,-92.0613,1013.47,11111222 
WAVCIS,ioos:station:WAVCIS:CSI03:1,2010-02-06T14:00:00Z,29.4412,-92.0613,1014.32,11111222 
WAVCIS,ioos:station:WAVCIS:CSI03:1,2010-02-06T15:00:00Z,29.4412,-92.0613,1014.87,11111222 
WAVCIS,ioos:station:WAVCIS:CSI03:1,2010-02-06T16:00:00Z,29.4412,-92.0613,1015.22,11111222 
WAVCIS,ioos:station:WAVCIS:CSI03:1,2010-02-06T17:00:00Z,29.4412,-92.0613,1015.78,11111222 
WAVCIS,ioos:station:WAVCIS:CSI03:1,2010-02-06T18:00:00Z,29.4412,-92.0613,1015.32,11111222 
WAVCIS,ioos:station:WAVCIS:CSI03:1,2010-02-06T19:00:00Z,29.4412,-92.0613,1014.66,11111222 
WAVCIS,ioos:station:WAVCIS:CSI03:1,2010-02-06T20:00:00Z,29.4412,-92.0613,1014.42,11111222 
WAVCIS,ioos:station:WAVCIS:CSI03:1,2010-02-06T21:00:00Z,29.4412,-92.0613,1014.39,11111222 
WAVCIS,ioos:station:WAVCIS:CSI03:1,2010-02-06T22:00:00Z,29.4412,-92.0613,1014.38,11111222 
WAVCIS,ioos:station:WAVCIS:CSI03:1,2010-02-06T23:00:00Z,29.4412,-92.0613,1014.8,11111222 
WAVCIS,ioos:station:WAVCIS:CSI03:1,2010-02-07T00:00:00Z,29.4412,-92.0613,1015.48,11111222 
WAVCIS,ioos:station:WAVCIS:CSI03:1,2010-02-07T01:00:00Z,29.4412,-92.0613,1016.24,11111222 
WAVCIS,ioos:station:WAVCIS:CSI03:1,2010-02-07T02:00:00Z,29.4412,-92.0613,1016.51,11111222 
WAVCIS,ioos:station:WAVCIS:CSI03:1,2010-02-07T03:00:00Z,29.4412,-92.0613,1017.13,11111222 
WAVCIS,ioos:station:WAVCIS:CSI03:1,2010-02-07T04:00:00Z,29.4412,-92.0613,1017.5,11111222 
WAVCIS,ioos:station:WAVCIS:CSI03:1,2010-02-07T05:00:00Z,29.4412,-92.0613,1017.48,11111222 
WAVCIS,ioos:station:WAVCIS:CSI03:1,2010-02-07T06:00:00Z,29.4412,-92.0613,1017.04,11111222 
WAVCIS,ioos:station:WAVCIS:CSI03:1,2010-02-07T07:00:00Z,29.4412,-92.0613,1016.77,11111222 
WAVCIS,ioos:station:WAVCIS:CSI03:1,2010-02-07T08:00:00Z,29.4412,-92.0613,1016.94,11111222 
WAVCIS,ioos:station:WAVCIS:CSI03:1,2010-02-07T09:00:00Z,29.4412,-92.0613,1016.82,11111222 
WAVCIS,ioos:station:WAVCIS:CSI03:1,2010-02-07T10:00:00Z,29.4412,-92.0613,1016.33,11111222 
WAVCIS,ioos:station:WAVCIS:CSI03:1,2010-02-07T11:00:00Z,29.4412,-92.0613,1016.25,11111222 
WAVCIS,ioos:station:WAVCIS:CSI03:1,2010-02-07T12:00:00Z,29.4412,-92.0613,1016.83,11111222 
WAVCIS,ioos:station:WAVCIS:CSI03:1,2010-02-07T13:00:00Z,29.4412,-92.0613,1017.42,11111222 
WAVCIS,ioos:station:WAVCIS:CSI03:1,2010-02-07T14:00:00Z,29.4412,-92.0613,1018.19,11111222 
WAVCIS,ioos:station:WAVCIS:CSI03:1,2010-02-07T15:00:00Z,29.4412,-92.0613,1018.25,11111222 
WAVCIS,ioos:station:WAVCIS:CSI03:1,2010-02-07T16:00:00Z,29.4412,-92.0613,1018.67,11111222 
WAVCIS,ioos:station:WAVCIS:CSI03:1,2010-02-07T17:00:00Z,29.4412,-92.0613,1018.5,11111222 
WAVCIS,ioos:station:WAVCIS:CSI03:1,2010-02-07T18:00:00Z,29.4412,-92.0613,1017.68,11111222 
WAVCIS,ioos:station:WAVCIS:CSI03:1,2010-02-07T19:00:00Z,29.4412,-92.0613,1016.61,11111222 
WAVCIS,ioos:station:WAVCIS:CSI03:1,2010-02-07T20:00:00Z,29.4412,-92.0613,1015.78,11111222 
WAVCIS,ioos:station:WAVCIS:CSI03:1,2010-02-07T21:00:00Z,29.4412,-92.0613,1015.46,11111222 
WAVCIS,ioos:station:WAVCIS:CSI03:1,2010-02-07T22:00:00Z,29.4412,-92.0613,1015.11,11111222 
WAVCIS,ioos:station:WAVCIS:CSI03:1,2010-02-07T23:00:00Z,29.4412,-92.0613,1014.86,11111222 
WAVCIS,ioos:station:WAVCIS:CSI03:1,2010-02-08T00:00:00Z,29.4412,-92.0613,1014.68,11111222 
WAVCIS,ioos:station:WAVCIS:CSI03:1,2010-02-08T01:00:00Z,29.4412,-92.0613,1014.63,11111222 
WAVCIS,ioos:station:WAVCIS:CSI03:1,2010-02-08T02:00:00Z,29.4412,-92.0613,1015.01,11111222 
WAVCIS,ioos:station:WAVCIS:CSI03:1,2010-02-08T03:00:00Z,29.4412,-92.0613,1014.93,11111222 
WAVCIS,ioos:station:WAVCIS:CSI03:1,2010-02-08T04:00:00Z,29.4412,-92.0613,1014.63,11111222 
WAVCIS,ioos:station:WAVCIS:CSI03:1,2010-02-08T05:00:00Z,29.4412,-92.0613,1013.85,11111222 
WAVCIS,ioos:station:WAVCIS:CSI03:1,2010-02-08T06:00:00Z,29.4412,-92.0613,1013.24,11111222 
WAVCIS,ioos:station:WAVCIS:CSI03:1,2010-02-08T07:00:00Z,29.4412,-92.0613,1012.5,11111222 
WAVCIS,ioos:station:WAVCIS:CSI03:1,2010-02-08T08:00:00Z,29.4412,-92.0613,1012.21,11111222 
WAVCIS,ioos:station:WAVCIS:CSI03:1,2010-02-08T09:00:00Z,29.4412,-92.0613,1012.5,11111222 
WAVCIS,ioos:station:WAVCIS:CSI03:1,2010-02-08T10:00:00Z,29.4412,-92.0613,1012.21,11111222 
WAVCIS,ioos:station:WAVCIS:CSI03:1,2010-02-08T11:00:00Z,29.4412,-92.0613,1012.44,11111222 
WAVCIS,ioos:station:WAVCIS:CSI03:1,2010-02-08T12:00:00Z,29.4412,-92.0613,1012.35,11111222 
WAVCIS,ioos:station:WAVCIS:CSI03:1,2010-02-08T13:00:00Z,29.4412,-92.0613,1012.97,11111222 
WAVCIS,ioos:station:WAVCIS:CSI03:1,2010-02-08T14:00:00Z,29.4412,-92.0613,1012.89,11111222 
WAVCIS,ioos:station:WAVCIS:CSI03:1,2010-02-08T15:00:00Z,29.4412,-92.0613,1012.19,11111222 
WAVCIS,ioos:station:WAVCIS:CSI03:1,2010-02-08T16:00:00Z,29.4412,-92.0613,1012.04,11111222 
WAVCIS,ioos:station:WAVCIS:CSI03:1,2010-02-08T17:00:00Z,29.4412,-92.0613,1011.33,11111222 
WAVCIS,ioos:station:WAVCIS:CSI03:1,2010-02-08T18:00:00Z,29.4412,-92.0613,1010.87,11111222 
WAVCIS,ioos:station:WAVCIS:CSI03:1,2010-02-08T19:00:00Z,29.4412,-92.0613,1009.89,11111222 
WAVCIS,ioos:station:WAVCIS:CSI03:1,2010-02-08T20:00:00Z,29.4412,-92.0613,1008.29,11111222 
WAVCIS,ioos:station:WAVCIS:CSI03:1,2010-02-08T21:00:00Z,29.4412,-92.0613,1007.6,11111222 
WAVCIS,ioos:station:WAVCIS:CSI03:1,2010-02-08T22:00:00Z,29.4412,-92.0613,1007.76,11111222 
WAVCIS,ioos:station:WAVCIS:CSI03:1,2010-02-08T23:00:00Z,29.4412,-92.0613,1007.36,11111222 
WAVCIS,ioos:station:WAVCIS:CSI03:1,2010-02-09T00:00:00Z,29.4412,-92.0613,1006.872,11111222 
WAVCIS,ioos:station:WAVCIS:CSI03:1,2010-02-09T01:00:00Z,29.4412,-92.0613,1006.167,11111222 
WAVCIS,ioos:station:WAVCIS:CSI03:1,2010-02-09T02:00:00Z,29.4412,-92.0613,1005.846,11111222 
WAVCIS,ioos:station:WAVCIS:CSI03:1,2010-02-09T03:00:00Z,29.4412,-92.0613,1006.12,11111222 
WAVCIS,ioos:station:WAVCIS:CSI03:1,2010-02-09T04:00:00Z,29.4412,-92.0613,1006.812,11111222 
WAVCIS,ioos:station:WAVCIS:CSI03:1,2010-02-09T05:00:00Z,29.4412,-92.0613,1006.409,11111222 
WAVCIS,ioos:station:WAVCIS:CSI03:1,2010-02-09T06:00:00Z,29.4412,-92.0613,1005.974,11111222 
WAVCIS,ioos:station:WAVCIS:CSI03:1,2010-02-09T07:00:00Z,29.4412,-92.0613,1007.32,11111222 
WAVCIS,ioos:station:WAVCIS:CSI03:1,2010-02-09T08:00:00Z,29.4412,-92.0613,1007.53,11111222 
WAVCIS,ioos:station:WAVCIS:CSI03:1,2010-02-09T09:00:00Z,29.4412,-92.0613,1008.12,11111222 
WAVCIS,ioos:station:WAVCIS:CSI03:1,2010-02-09T10:00:00Z,29.4412,-92.0613,1008.85,11111222 
WAVCIS,ioos:station:WAVCIS:CSI03:1,2010-02-09T11:00:00Z,29.4412,-92.0613,1009.76,11111222 
WAVCIS,ioos:station:WAVCIS:CSI03:1,2010-02-09T12:00:00Z,29.4412,-92.0613,1010.56,11111222 
WAVCIS,ioos:station:WAVCIS:CSI03:1,2010-02-09T13:00:00Z,29.4412,-92.0613,1013.09,11111222 
WAVCIS,ioos:station:WAVCIS:CSI03:1,2010-02-09T14:00:00Z,29.4412,-92.0613,1014.55,11111222 
WAVCIS,ioos:station:WAVCIS:CSI03:1,2010-02-09T15:00:00Z,29.4412,-92.0613,1015.52,11111222 
WAVCIS,ioos:station:WAVCIS:CSI03:1,2010-02-09T16:00:00Z,29.4412,-92.0613,1017.02,11111222 
WAVCIS,ioos:station:WAVCIS:CSI03:1,2010-02-09T17:00:00Z,29.4412,-92.0613,1017.85,11111222 
WAVCIS,ioos:station:WAVCIS:CSI03:1,2010-02-09T18:00:00Z,29.4412,-92.0613,1017.88,11111222 
WAVCIS,ioos:station:WAVCIS:CSI03:1,2010-02-09T19:00:00Z,29.4412,-92.0613,1017.73,11111222 
WAVCIS,ioos:station:WAVCIS:CSI03:1,2010-02-09T20:00:00Z,29.4412,-92.0613,1017.4,11111222 
WAVCIS,ioos:station:WAVCIS:CSI03:1,2010-02-09T21:00:00Z,29.4412,-92.0613,1017.36,11111222 
WAVCIS,ioos:station:WAVCIS:CSI03:1,2010-02-09T22:00:00Z,29.4412,-92.0613,1017.26,11111222 
WAVCIS,ioos:station:WAVCIS:CSI03:1,2010-02-09T23:00:00Z,29.4412,-92.0613,1017.68,11111222 
WAVCIS,ioos:station:WAVCIS:CSI03:1,2010-02-10T00:00:00Z,29.4412,-92.0613,1018.61,11111222 
WAVCIS,ioos:station:WAVCIS:CSI03:1,2010-02-10T01:00:00Z,29.4412,-92.0613,1019.4,11111222 
WAVCIS,ioos:station:WAVCIS:CSI03:1,2010-02-10T02:00:00Z,29.4412,-92.0613,1020.01,11111222 
WAVCIS,ioos:station:WAVCIS:CSI03:1,2010-02-10T03:00:00Z,29.4412,-92.0613,1021.07,11111222 
WAVCIS,ioos:station:WAVCIS:CSI03:1,2010-02-10T04:00:00Z,29.4412,-92.0613,1021.46,11111222 
WAVCIS,ioos:station:WAVCIS:CSI03:1,2010-02-10T05:00:00Z,29.4412,-92.0613,1021.79,11111222 
WAVCIS,ioos:station:WAVCIS:CSI03:1,2010-02-10T06:00:00Z,29.4412,-92.0613,1021.97,11111222 
WAVCIS,ioos:station:WAVCIS:CSI03:1,2010-02-10T07:00:00Z,29.4412,-92.0613,1021.99,11111222 
WAVCIS,ioos:station:WAVCIS:CSI03:1,2010-02-10T08:00:00Z,29.4412,-92.0613,1021.9,11111222 
WAVCIS,ioos:station:WAVCIS:CSI03:1,2010-02-10T09:00:00Z,29.4412,-92.0613,1022.11,11111222 
WAVCIS,ioos:station:WAVCIS:CSI03:1,2010-02-10T10:00:00Z,29.4412,-92.0613,1022.72,11111222 
WAVCIS,ioos:station:WAVCIS:CSI03:1,2010-02-10T11:00:00Z,29.4412,-92.0613,1023.16,11111222 
WAVCIS,ioos:station:WAVCIS:CSI03:1,2010-02-10T12:00:00Z,29.4412,-92.0613,1022.86,11111222 
WAVCIS,ioos:station:WAVCIS:CSI03:1,2010-02-10T13:00:00Z,29.4412,-92.0613,1023.16,11111222 
WAVCIS,ioos:station:WAVCIS:CSI03:1,2010-02-10T14:00:00Z,29.4412,-92.0613,1023.97,11111222 
WAVCIS,ioos:station:WAVCIS:CSI03:1,2010-02-10T15:00:00Z,29.4412,-92.0613,1023.73,11111222 
WAVCIS,ioos:station:WAVCIS:CSI03:1,2010-02-10T16:00:00Z,29.4412,-92.0613,1023.83,11111222 
WAVCIS,ioos:station:WAVCIS:CSI03:1,2010-02-10T17:00:00Z,29.4412,-92.0613,1023.65,11111222 
WAVCIS,ioos:station:WAVCIS:CSI03:1,2010-02-10T18:00:00Z,29.4412,-92.0613,1023.96,11111222 
WAVCIS,ioos:station:WAVCIS:CSI03:1,2010-02-10T19:00:00Z,29.4412,-92.0613,1023.47,11111222 
WAVCIS,ioos:station:WAVCIS:CSI03:1,2010-02-10T20:00:00Z,29.4412,-92.0613,1022.68,11111222 
WAVCIS,ioos:station:WAVCIS:CSI03:1,2010-02-10T21:00:00Z,29.4412,-92.0613,1022.02,11111222 
WAVCIS,ioos:station:WAVCIS:CSI03:1,2010-02-10T22:00:00Z,29.4412,-92.0613,1021.56,11111222 
WAVCIS,ioos:station:WAVCIS:CSI03:1,2010-02-10T23:00:00Z,29.4412,-92.0613,1021.41,11111222 
WAVCIS,ioos:station:WAVCIS:CSI03:1,2010-02-11T00:00:00Z,29.4412,-92.0613,1021.66,11111222 
WAVCIS,ioos:station:WAVCIS:CSI03:1,2010-02-11T01:00:00Z,29.4412,-92.0613,1021.26,11111222 
WAVCIS,ioos:station:WAVCIS:CSI03:1,2010-02-11T02:00:00Z,29.4412,-92.0613,1022.0,11111222 
WAVCIS,ioos:station:WAVCIS:CSI03:1,2010-02-11T03:00:00Z,29.4412,-92.0613,1021.71,11111222 
WAVCIS,ioos:station:WAVCIS:CSI03:1,2010-02-11T04:00:00Z,29.4412,-92.0613,1021.66,11111222 
WAVCIS,ioos:station:WAVCIS:CSI03:1,2010-02-11T05:00:00Z,29.4412,-92.0613,1021.27,11111222 
WAVCIS,ioos:station:WAVCIS:CSI03:1,2010-02-11T06:00:00Z,29.4412,-92.0613,1020.82,11111222 
WAVCIS,ioos:station:WAVCIS:CSI03:1,2010-02-11T07:00:00Z,29.4412,-92.0613,1019.87,11111222 
WAVCIS,ioos:station:WAVCIS:CSI03:1,2010-02-11T08:00:00Z,29.4412,-92.0613,1019.05,11111222 
WAVCIS,ioos:station:WAVCIS:CSI03:1,2010-02-11T09:00:00Z,29.4412,-92.0613,1018.72,11111222 
WAVCIS,ioos:station:WAVCIS:CSI03:1,2010-02-11T10:00:00Z,29.4412,-92.0613,1019.12,11111222 
WAVCIS,ioos:station:WAVCIS:CSI03:1,2010-02-11T11:00:00Z,29.4412,-92.0613,1018.76,11111222 
WAVCIS,ioos:station:WAVCIS:CSI03:1,2010-02-11T12:00:00Z,29.4412,-92.0613,1018.82,11111222 
WAVCIS,ioos:station:WAVCIS:CSI03:1,2010-02-11T13:00:00Z,29.4412,-92.0613,1018.67,11111222 
WAVCIS,ioos:station:WAVCIS:CSI03:1,2010-02-11T14:00:00Z,29.4412,-92.0613,1017.78,11111222 
WAVCIS,ioos:station:WAVCIS:CSI03:1,2010-02-11T15:00:00Z,29.4412,-92.0613,1018.11,11111222 
WAVCIS,ioos:station:WAVCIS:CSI03:1,2010-02-11T16:00:00Z,29.4412,-92.0613,1017.76,11111222 
WAVCIS,ioos:station:WAVCIS:CSI03:1,2010-02-11T17:00:00Z,29.4412,-92.0613,1017.48,11111222 
WAVCIS,ioos:station:WAVCIS:CSI03:1,2010-02-11T18:00:00Z,29.4412,-92.0613,1016.9,11111222 
WAVCIS,ioos:station:WAVCIS:CSI03:1,2010-02-11T19:00:00Z,29.4412,-92.0613,1015.54,11111222 
WAVCIS,ioos:station:WAVCIS:CSI03:1,2010-02-11T20:00:00Z,29.4412,-92.0613,1014.04,11111222 
WAVCIS,ioos:station:WAVCIS:CSI03:1,2010-02-11T21:00:00Z,29.4412,-92.0613,1013.32,11111222 
WAVCIS,ioos:station:WAVCIS:CSI03:1,2010-02-11T22:00:00Z,29.4412,-92.0613,1012.38,11111222 